Regional Weather Roundup
Issued by NWS Newport/Morehead, NC

Current Version | Previous Version | Graphics & Text | Print | Product List | Glossary On
Versions: 1 2 3 4 5 6 7 8 9 10 11 12 13 14 15 16 17 18 19 20 21 22 23 24 25 26 27 28 29 30 31 32 33 34 35 36 37 38 39 40 41 42 43 44 45 46 47 48 49 50
000 ASUS42 KMHX 212213 RWRMHX WEATHER ROUNDUP FOR EASTERN NORTH CAROLINA NATIONAL WEATHER SERVICE NEWPORT/MOREHEAD CITY NC 500 PM EST WED FEB 21 2018 NOTE: "FAIR" INDICATES FEW OR NO CLOUDS BELOW 12,000 FEET WITH NO SIGNIFICANT WEATHER AND/OR OBSTRUCTIONS TO VISIBILITY NCZ015>017-031-032-045>047-102-103-212300- NORTH COAST CITY SKY/WX TMP DP RH WIND PRES REMARKS EDENTON FAIR 77 61 56 W3 30.41R ELIZABETH CITY FAIR 78 63 59 SW8 30.40R KITTY HAWK FAIR 71 62 73 S5 30.40R MANTEO FAIR 67 60 80 S13 30.42S $$ NCZ045>047-081-094-103-104-212300- CENTRAL COAST CITY SKY/WX TMP DP RH WIND PRES REMARKS FRISCO FAIR 70 66 87 SW8 30.45R $$ NCZ095-097-098-100-101-212300- SOUTHERN COAST CITY SKY/WX TMP DP RH WIND PRES REMARKS BEAUFORT FAIR 71 66 84 S8 30.44S CEDAR ISLAND NOT AVBL JACKSONVILLE FAIR 76 64 66 S8 30.41S PINEY ISLAND NOT AVBL WILMINGTON FAIR 75 65 70 S10 30.42S $$ NCZ011>013-027>030-043-044-078>080-089-090>093-098-212300- COASTAL PLAIN CITY SKY/WX TMP DP RH WIND PRES REMARKS AHOSKIE FAIR 73 63 70 CALM 30.40S CLINTON FAIR 79 64 60 S3 30.40F ELIZABETHTOWN NOT AVBL GOLDSBORO PTSUNNY 79 61 54 SW5 30.38S GREENVILLE FAIR 81 61 50 SW7 30.40S HAVELOCK SUNNY 75 64 68 S14G22 30.44R KENANSVILLE FAIR 79 61 53 S5 30.41R KINSTON FAIR 79 59 50 S8 30.40S NEW BERN FAIR 76 62 62 S12 30.42S RICHLANDS FAIR 78 62 57 S9 30.41S ROCKY MOUNT FAIR 77 62 59 SW6 30.40S WASHINGTON FAIR 79 60 51 S3 30.40S WHITEVILLE FAIR 77 63 62 S8 30.40S $$ AMZ130-135-150-152-154-156-158-170-250-252-270-ANZ085-086-088-633-658-670-212300- MARINE OBSERVATIONS STATION/POSITION TIME TEMP WIND PRES WAVE SWELL AIR SEA DIR/SP/G HT/PER HT/PER (UTC) (F) (DEG/KT/KT) (MB) (FT/S) (FT/S) CHESAPEAKE LIGHT NOT AVBL 64 E VA BEACH 2150 56 52 200/ 10/ 10 1030.4 3/14 3/14 DUCK 2142 62 45 150/ 3/ 6 1029.3 2 E DUCK 2200 49 N/A 2/13 2/13 OREGON INLET 2148 180/ 12/ 15 N/A 13E OREGON INLT 2148 49 N/A 3/15 3/15 HATTERAS CG 2142 69 60 180/ 5/ 8 1030.9 DIAMOND BUOY 2150 72 71 210/ 10/ 12 1031.3 4/11 3/11 CAPE LOOKOUT 2200 200/ 8/ 10 1031.3 BEAUFORT LAB 2142 66 58 180/ 6/ 7 1031.0 30 SE NEW RVR IN 2108 72 70 210/ 4/ 6 1031.3 30 SE NEW RVR IN 2200 70 N/A 4/ 6 2/13 27 SE WRIGHTSVLE 2108 71 70 220/ 4/ 6 1031.1 5 SE WRIGHTSVLE 2108 65 59 200/ 6/ 8 1030.5 225 S CAPE HAT 2150 72 75 120/ 10/ 12 1032.0 5/ 8 5/ 8 41 SE CHARLESTON 2200 72 130/ 2/ 4 1030.5 $$

USA.gov is the U.S. government's official web portal to all federal, state and local government web resources and services.